Time,TemperatureF,DewpointF,PressureIn,WindDirection,WindDirectionDegrees,WindSpeedMPH,WindSpeedGustMPH,Humidity,HourlyPrecipIn,Conditions,Clouds,dailyrainin,SoftwareType,DateUTC
2013-03-08 00:00:00,60.4,59.9,30.00,SSE,157,7.8,-999.0,98,-99.99,,,0.00,Acu-Link.com,2013-03-08 06:00:00,
2013-03-08 00:15:00,60.3,59.7,30.00,SE,135,3.8,-999.0,98,-99.99,,,0.00,Acu-Link.com,2013-03-08 06:15:00,
2013-03-08 00:30:00,60.3,59.7,29.99,ESE,112,3.1,-999.0,98,-99.99,,,0.00,Acu-Link.com,2013-03-08 06:30:00,
2013-03-08 00:45:00,60.1,59.5,29.99,SE,135,3.8,-999.0,98,-99.99,,,0.00,Acu-Link.com,2013-03-08 06:45:00,
2013-03-08 01:01:00,60.1,59.5,29.99,ESE,112,3.8,-999.0,98,-99.99,,,0.00,Acu-Link.com,2013-03-08 07:01:00,
2013-03-08 01:16:00,60.1,59.5,29.99,SE,135,4.3,-999.0,98,-99.99,,,0.00,Acu-Link.com,2013-03-08 07:16:00,
2013-03-08 01:31:00,59.9,59.3,29.99,SSE,157,3.1,-999.0,98,-99.99,,,0.00,Acu-Link.com,2013-03-08 07:31:00,
2013-03-08 01:46:00,59.7,59.2,30.00,SE,135,5.8,-999.0,98,-99.99,,,0.00,Acu-Link.com,2013-03-08 07:46:00,
2013-03-08 02:01:00,59.5,59.0,29.98,East,90,2.7,-999.0,98,-99.99,,,0.00,Acu-Link.com,2013-03-08 08:01:00,
2013-03-08 02:17:00,59.4,58.8,29.98,SSE,157,5.8,-999.0,98,-99.99,,,0.00,Acu-Link.com,2013-03-08 08:17:00,
2013-03-08 02:32:00,59.4,58.8,29.98,ESE,112,3.1,-999.0,98,-99.99,,,0.00,Acu-Link.com,2013-03-08 08:32:00,
2013-03-08 02:47:00,59.4,58.8,29.98,ENE,67,3.8,-999.0,98,-99.99,,,0.00,Acu-Link.com,2013-03-08 08:47:00,
2013-03-08 03:02:00,59.4,58.8,29.97,SE,135,3.1,-999.0,98,-99.99,,,0.00,Acu-Link.com,2013-03-08 09:02:00,
2013-03-08 03:17:00,59.2,58.6,29.97,SSE,157,5.8,-999.0,98,-99.99,,,0.00,Acu-Link.com,2013-03-08 09:17:00,
2013-03-08 03:32:00,59.0,58.4,29.97,SSE,157,2.7,-999.0,98,-99.99,,,0.00,Acu-Link.com,2013-03-08 09:32:00,
2013-03-08 03:48:00,58.8,58.3,29.96,SSE,157,5.1,-999.0,98,-99.99,,,0.00,Acu-Link.com,2013-03-08 09:48:00,
2013-03-08 04:03:00,58.6,58.1,29.97,South,180,4.3,-999.0,98,-99.99,,,0.00,Acu-Link.com,2013-03-08 10:03:00,
2013-03-08 04:18:00,58.3,57.7,29.97,South,180,4.7,-999.0,98,-99.99,,,0.00,Acu-Link.com,2013-03-08 10:18:00,
2013-03-08 04:33:00,58.1,57.5,29.97,ESE,112,9.4,-999.0,98,-99.99,,,0.00,Acu-Link.com,2013-03-08 10:33:00,
2013-03-08 04:48:00,58.1,57.5,29.97,SE,135,2.2,-999.0,98,-99.99,,,0.00,Acu-Link.com,2013-03-08 10:48:00,
2013-03-08 05:04:00,58.1,57.5,29.96,ESE,112,2.7,-999.0,98,-99.99,,,0.00,Acu-Link.com,2013-03-08 11:04:00,
2013-03-08 05:19:00,57.7,57.2,29.97,ESE,112,3.1,-999.0,98,-99.99,,,0.00,Acu-Link.com,2013-03-08 11:19:00,
2013-03-08 05:34:00,57.7,57.2,29.96,South,180,4.3,-999.0,98,-99.99,,,0.00,Acu-Link.com,2013-03-08 11:34:00,
2013-03-08 05:49:00,57.7,57.2,29.97,ESE,112,3.8,-999.0,98,-99.99,,,0.00,Acu-Link.com,2013-03-08 11:49:00,
2013-03-08 06:04:00,57.9,57.4,29.97,ESE,112,3.8,-999.0,98,-99.99,,,0.00,Acu-Link.com,2013-03-08 12:04:00,
2013-03-08 06:20:00,57.7,57.2,29.98,South,180,4.3,-999.0,98,-99.99,,,0.00,Acu-Link.com,2013-03-08 12:20:00,
2013-03-08 06:35:00,57.7,57.2,29.98,SSE,157,4.3,-999.0,98,-99.99,,,0.00,Acu-Link.com,2013-03-08 12:35:00,
2013-03-08 06:50:00,57.6,57.0,29.98,SE,135,2.7,-999.0,98,-99.99,,,0.00,Acu-Link.com,2013-03-08 12:50:00,
2013-03-08 07:05:00,57.6,57.0,29.98,SSE,157,4.3,-999.0,98,-99.99,,,0.00,Acu-Link.com,2013-03-08 13:05:00,
2013-03-08 07:20:00,57.6,57.0,30.00,ESE,112,3.1,-999.0,98,-99.99,,,0.00,Acu-Link.com,2013-03-08 13:20:00,
2013-03-08 07:36:00,57.6,57.0,30.01,SSE,157,3.1,-999.0,98,-99.99,,,0.00,Acu-Link.com,2013-03-08 13:36:00,
2013-03-08 07:51:00,57.6,57.0,30.03,SW,225,3.8,-999.0,98,-99.99,,,0.00,Acu-Link.com,2013-03-08 13:51:00,
2013-03-08 08:06:00,57.6,57.0,30.04,SSE,157,4.3,-999.0,98,-99.99,,,0.00,Acu-Link.com,2013-03-08 14:06:00,
2013-03-08 08:21:00,57.6,57.0,30.04,South,180,3.8,-999.0,98,-99.99,,,0.00,Acu-Link.com,2013-03-08 14:21:00,
2013-03-08 08:36:00,57.7,57.2,30.04,SE,135,5.8,-999.0,98,-99.99,,,0.00,Acu-Link.com,2013-03-08 14:36:00,
2013-03-08 08:52:00,57.7,57.2,30.04,SSW,202,3.1,-999.0,98,-99.99,,,0.00,Acu-Link.com,2013-03-08 14:52:00,
2013-03-08 09:07:00,57.9,57.4,30.03,SSE,157,2.7,-999.0,98,-99.99,,,0.00,Acu-Link.com,2013-03-08 15:07:00,
2013-03-08 09:22:00,58.5,57.9,30.03,SE,135,2.7,-999.0,98,-99.99,,,0.00,Acu-Link.com,2013-03-08 15:22:00,
2013-03-08 09:37:00,59.2,58.6,30.03,South,180,2.7,-999.0,98,-99.99,,,0.00,Acu-Link.com,2013-03-08 15:37:00,
2013-03-08 09:52:00,59.5,59.0,30.04,SSE,157,3.1,-999.0,98,-99.99,,,0.00,Acu-Link.com,2013-03-08 15:52:00,
2013-03-08 10:08:00,59.5,59.0,30.04,SSW,202,3.1,-999.0,98,-99.99,,,0.00,Acu-Link.com,2013-03-08 16:08:00,
2013-03-08 10:23:00,60.3,59.7,30.03,South,180,3.8,-999.0,98,-99.99,,,0.00,Acu-Link.com,2013-03-08 16:23:00,
2013-03-08 10:38:00,60.8,60.2,30.02,South,180,2.7,-999.0,98,-99.99,,,0.00,Acu-Link.com,2013-03-08 16:38:00,
2013-03-08 10:53:00,60.4,59.9,30.01,NE,45,5.1,-999.0,98,-99.99,,,0.00,Acu-Link.com,2013-03-08 16:53:00,
2013-03-08 11:08:00,61.3,60.8,30.00,SE,135,3.1,-999.0,98,-99.99,,,0.00,Acu-Link.com,2013-03-08 17:08:00,
2013-03-08 11:24:00,62.8,62.2,30.00,SE,135,3.8,-999.0,98,-99.99,,,0.00,Acu-Link.com,2013-03-08 17:24:00,
2013-03-08 11:39:00,63.7,63.1,30.00,NNW,337,2.7,-999.0,98,-99.99,,,0.00,Acu-Link.com,2013-03-08 17:39:00,
2013-03-08 11:54:00,62.6,62.0,30.01,NNE,22,4.3,-999.0,98,-99.99,,,0.00,Acu-Link.com,2013-03-08 17:54:00,
2013-03-08 12:09:00,61.0,60.4,30.01,SW,225,2.7,-999.0,98,-99.99,,,0.00,Acu-Link.com,2013-03-08 18:09:00,
2013-03-08 12:24:00,60.6,60.1,30.02,ESE,112,2.7,-999.0,98,-99.99,,,0.00,Acu-Link.com,2013-03-08 18:24:00,
2013-03-08 12:40:00,60.1,59.5,30.01,ESE,112,2.2,-999.0,98,-99.99,,,0.00,Acu-Link.com,2013-03-08 18:40:00,
2013-03-08 12:55:00,60.1,59.5,30.00,West,270,1.6,-999.0,98,-99.99,,,0.00,Acu-Link.com,2013-03-08 18:55:00,
2013-03-08 13:10:00,60.1,59.5,29.99,SW,225,3.1,-999.0,98,-99.99,,,0.00,Acu-Link.com,2013-03-08 19:10:00,
2013-03-08 13:25:00,60.1,59.5,29.97,SSW,202,4.7,-999.0,98,-99.99,,,0.00,Acu-Link.com,2013-03-08 19:25:00,
2013-03-08 13:41:00,60.3,59.7,29.96,SSE,157,2.2,-999.0,98,-99.99,,,0.00,Acu-Link.com,2013-03-08 19:41:00,
2013-03-08 13:56:00,60.6,60.1,29.95,SSE,157,4.7,-999.0,98,-99.99,,,0.00,Acu-Link.com,2013-03-08 19:56:00,
2013-03-08 14:11:00,61.0,60.4,29.95,South,180,2.2,-999.0,98,-99.99,,,0.00,Acu-Link.com,2013-03-08 20:11:00,
2013-03-08 14:26:00,61.0,60.4,29.95,South,180,7.8,-999.0,98,-99.99,,,0.00,Acu-Link.com,2013-03-08 20:26:00,
2013-03-08 14:41:00,61.7,61.1,29.94,ESE,112,6.7,-999.0,98,-99.99,,,0.00,Acu-Link.com,2013-03-08 20:41:00,
2013-03-08 14:57:00,62.1,61.5,29.93,SE,135,4.7,-999.0,98,-99.99,,,0.00,Acu-Link.com,2013-03-08 20:57:00,
2013-03-08 15:12:00,62.6,62.0,29.92,ESE,112,3.1,-999.0,98,-99.99,,,0.00,Acu-Link.com,2013-03-08 21:12:00,
2013-03-08 15:27:00,62.6,62.0,29.92,ESE,112,3.8,-999.0,98,-99.99,,,0.00,Acu-Link.com,2013-03-08 21:27:00,
2013-03-08 15:42:00,63.1,62.6,29.91,SSE,157,3.8,-999.0,98,-99.99,,,0.00,Acu-Link.com,2013-03-08 21:42:00,
2013-03-08 15:57:00,63.0,62.4,29.91,South,180,8.9,-999.0,98,-99.99,,,0.00,Acu-Link.com,2013-03-08 21:57:00,
2013-03-08 16:13:00,62.4,61.8,29.92,SSW,202,3.8,-999.0,98,-99.99,,,0.00,Acu-Link.com,2013-03-08 22:13:00,
2013-03-08 16:28:00,62.8,62.2,29.91,ESE,112,10.3,-999.0,98,-99.99,,,0.00,Acu-Link.com,2013-03-08 22:28:00,
2013-03-08 16:43:00,63.0,62.4,29.89,South,180,3.8,-999.0,98,-99.99,,,0.00,Acu-Link.com,2013-03-08 22:43:00,
2013-03-08 16:58:00,63.5,62.9,29.90,WSW,247,5.1,-999.0,98,-99.99,,,0.00,Acu-Link.com,2013-03-08 22:58:00,
2013-03-08 17:13:00,63.5,62.9,29.90,SSW,202,3.1,-999.0,98,-99.99,,,0.00,Acu-Link.com,2013-03-08 23:13:00,
2013-03-08 17:14:00,63.5,62.9,29.90,SSW,202,3.1,-999.0,98,-99.99,,,0.00,Acu-Link.com,2013-03-08 23:14:00,
2013-03-08 17:29:00,62.8,62.2,29.91,SSE,157,4.3,-999.0,98,-99.99,,,0.00,Acu-Link.com,2013-03-08 23:29:00,
2013-03-08 17:44:00,62.2,61.7,29.91,ESE,112,5.1,-999.0,98,-99.99,,,0.00,Acu-Link.com,2013-03-08 23:44:00,
2013-03-08 17:59:00,62.1,61.5,29.91,SSW,202,4.3,-999.0,98,-99.99,,,0.00,Acu-Link.com,2013-03-08 23:59:00,
2013-03-08 18:14:00,61.5,60.9,29.90,ESE,112,2.7,-999.0,98,-99.99,,,0.00,Acu-Link.com,2013-03-09 00:14:00,
2013-03-08 18:30:00,61.3,60.8,29.90,SSE,157,3.8,-999.0,98,-99.99,,,0.00,Acu-Link.com,2013-03-09 00:30:00,
2013-03-08 18:45:00,61.3,60.8,29.91,SSE,157,3.8,-999.0,98,-99.99,,,0.00,Acu-Link.com,2013-03-09 00:45:00,
2013-03-08 19:00:00,61.7,61.1,29.91,SSE,157,4.7,-999.0,98,-99.99,,,0.00,Acu-Link.com,2013-03-09 01:00:00,
2013-03-08 19:15:00,62.1,61.5,29.90,SSE,157,6.7,-999.0,98,-99.99,,,0.00,Acu-Link.com,2013-03-09 01:15:00,
2013-03-08 19:30:00,62.1,61.5,29.89,South,180,5.1,-999.0,98,-99.99,,,0.00,Acu-Link.com,2013-03-09 01:30:00,
2013-03-08 19:46:00,62.2,61.7,29.90,SSE,157,7.4,-999.0,98,-99.99,,,0.00,Acu-Link.com,2013-03-09 01:46:00,
2013-03-08 20:01:00,62.6,62.0,29.90,SSE,157,6.7,-999.0,98,-99.99,,,0.00,Acu-Link.com,2013-03-09 02:01:00,
2013-03-08 20:16:00,62.6,62.0,29.90,ESE,112,5.8,-999.0,98,-99.99,,,0.00,Acu-Link.com,2013-03-09 02:16:00,
2013-03-08 20:31:00,63.0,62.4,29.90,SE,135,11.0,-999.0,98,-99.99,,,0.00,Acu-Link.com,2013-03-09 02:31:00,
2013-03-08 20:46:00,63.1,62.6,29.89,South,180,8.3,-999.0,98,-99.99,,,0.00,Acu-Link.com,2013-03-09 02:46:00,
2013-03-08 21:02:00,63.0,62.4,29.89,SSE,157,7.8,-999.0,98,-99.99,,,0.00,Acu-Link.com,2013-03-09 03:02:00,
2013-03-08 21:17:00,63.1,62.6,29.89,SSE,157,4.7,-999.0,98,-99.99,,,0.00,Acu-Link.com,2013-03-09 03:17:00,
2013-03-08 21:32:00,63.1,62.6,29.89,ESE,112,3.1,-999.0,98,-99.99,,,0.00,Acu-Link.com,2013-03-09 03:32:00,
2013-03-08 21:47:00,63.1,62.6,29.89,SE,135,13.0,-999.0,98,-99.99,,,0.00,Acu-Link.com,2013-03-09 03:47:00,
2013-03-08 22:02:00,63.1,62.6,29.88,ESE,112,8.3,-999.0,98,-99.99,,,0.00,Acu-Link.com,2013-03-09 04:02:00,
2013-03-08 22:18:00,63.1,62.6,29.88,SSE,157,14.1,-999.0,98,-99.99,,,0.00,Acu-Link.com,2013-03-09 04:18:00,
2013-03-08 22:33:00,63.1,62.6,29.88,East,90,5.1,-999.0,98,-99.99,,,0.00,Acu-Link.com,2013-03-09 04:33:00,
2013-03-08 22:48:00,63.0,62.4,29.88,SSE,157,6.3,-999.0,98,-99.99,,,0.00,Acu-Link.com,2013-03-09 04:48:00,
2013-03-08 23:03:00,62.8,62.2,29.87,SSE,157,11.0,-999.0,98,-99.99,,,0.00,Acu-Link.com,2013-03-09 05:03:00,
2013-03-08 23:18:00,62.8,62.2,29.87,SSE,157,4.7,-999.0,98,-99.99,,,0.00,Acu-Link.com,2013-03-09 05:18:00,
2013-03-08 23:34:00,62.6,62.0,29.87,South,180,6.7,-999.0,98,-99.99,,,0.00,Acu-Link.com,2013-03-09 05:34:00,
2013-03-08 23:49:00,62.4,61.8,29.86,SSW,202,15.0,-999.0,98,-99.99,,,0.00,Acu-Link.com,2013-03-09 05:49:00,